Temp
-4 -4 -4 -4 -4 -4 -4 -4 -4 -4 -5 -5 -5 -5 -5 -5 -5 -5 -5 -5 -4 -5 -5 -5 -5 -5 -5 -5 -7 -7 -6 -6 -6 -6 -6 -6 -6 -7 -7 -6 -6 -6 -6 -6 -6
-4 -4 -4 -4 -4 -4 -4 -4 -4 -4 -5 -5 -5 -5 -4 -5 -5 -5 -5 -4 -4 -4 -5 -5 -5 -5 -5 -6 -7 -6 -6 -6 -6 -6 -7 -7 -7 -7 -6 -6 -6 -6 -6 -6 -6
-5 -5 -4 -4 -4 -4 -4 -4 -4 -4 -4 -5 -5 -5 -5 -5 -4 -5 -4 -4 -4 -4 -4 -4 -4 -5 -5 -5 -6 -6 -6 -6 -7 -6 -7 -7 -7 -7 -6 -6 -6 -6 -6 -6 -6
-5 -5 -4 -4 -4 -4 -4 -4 -4 -5 -5 -5 -5 -5 -5 -5 -4 -4 -4 -4 -4 -4 -4 -4 -4 -5 -4 -5 -5 -6 -6 -6 -6 -6 -7 -7 -8 -7 -7 -6 -6 -6 -6 -6 -6
-5 -5 -5 -5 -5 -5 -5 -5 -5 -5 -5 -5 -5 -4 -5 -5 -5 -5 -5 -5 -5 -5 -5 -5 -4 -5 -4 -5 -6 -6 -6 -5 -6 -6 -7 -7 -7 -7 -7 -6 -6 -6 -6 -6 -6
-5 -5 -5 -5 -5 -5 -5 -5 -5 -5 -5 -5 -5 -5 -5 -5 -5 -5 -5 -5 -5 -5 -5 -5 -5 -5 -5 -5 -5 -6 -6 -6 -6 -6 -6 -6 -7 -7 -6 -6 -6 -6 -6 -6 -6
-5 -5 -5 -5 -5 -5 -5 -5 -5 -5 -5 -5 -5 -5 -5 -5 -5 -5 -5 -5 -5 -5 -5 -5 -5 -5 -5 -5 -5 -6 -6 -6 -6 -6 -5 -5 -6 -7 -6 -7 -6 -6 -6 -6 -7
-6 -5 -5 -5 -5 -5 -5 -5 -5 -5 -5 -5 -5 -5 -5 -5 -5 -5 -5 -5 -5 -5 -5 -5 -5 -5 -5 -5 -6 -6 -6 -6 -6 -6 -5 -5 -6 -7 -7 -7 -7 -6 -6 -6 -6
-6 -6 -5 -5 -5 -6 -5 -6 -6 -6 -5 -5 -5 -5 -5 -5 -5 -5 -5 -5 -5 -5 -5 -5 -6 -6 -5 -6 -5 -6 -6 -6 -6 -6 -6 -5 -6 -7 -7 -7 -7 -6 -6 -6 -6
-6 -6 -6 -6 -5 -5 -5 -5 -5 -5 -5 -5 -5 -5 -5 -5 -5 -5 -5 -5 -5 -5 -5 -5 -6 -6 -6 -6 -5 -6 -6 -6 -6 -6 -6 -6 -6 -6 -6 -7 -7 -6 -6 -6 -6
-6 -6 -6 -5 -5 -5 -5 -5 -5 -5 -5 -5 -5 -5 -5 -5 -5 -5 -5 -5 -5 -5 -5 -5 -6 -6 -6 -5 -6 -6 -6 -6 -6 -6 -6 -5 -6 -6 -7 -7 -7 -6 -6 -6 -6
-6 -6 -6 -5 -5 -5 -5 -5 -5 -5 -5 -5 -5 -5 -5 -5 -5 -5 -5 -5 -5 -5 -5 -6 -6 -6 -6 -6 -6 -6 -6 -6 -6 -6 -6 -6 -5 -5 -6 -7 -6 -6 -6 -6 -6
-6 -6 -6 -5 -5 -5 -5 -5 -5 -5 -5 -5 -5 -5 -5 -5 -5 -5 -5 -5 -5 -5 -6 -6 -6 -6 -6 -6 -6 -6 -7 -7 -6 -6 -6 -5 -5 -5 -6 -7 -7 -6 -6 -6 -5
-7 -6 -6 -6 -6 -6 -6 -6 -5 -5 -5 -5 -5 -5 -5 -5 -5 -5 -6 -5 -6 -6 -5 -6 -6 -6 -6 -6 -6 -6 -7 -6 -6 -6 -6 -5 -4 -5 -6 -7 -7 -7 -6 -6 -5
-7 -7 -7 -6 -6 -6 -6 -6 -6 -6 -6 -6 -6 -6 -6 -6 -6 -6 -6 -6 -6 -6 -6 -7 -6 -6 -6 -7 -6 -7 -6 -6 -6 -6 -6 -5 -5 -5 -5 -6 -6 -6 -6 -6 -5
-7 -7 -7 -7 -6 -6 -6 -6 -6 -7 -7 -7 -6 -6 -6 -6 -6 -7 -7 -7 -7 -7 -7 -7 -7 -6 -7 -7 -6 -7 -6 -6 -6 -6 -6 -5 -5 -5 -6 -6 -6 -6 -7 -7 -6
-8 -7 -7 -7 -7 -7 -7 -7 -7 -7 -7 -7 -7 -7 -7 -7 -7 -7 -7 -7 -7 -7 -7 -7 -6 -7 -7 -6 -6 -7 -7 -7 -6 -6 -6 -5 -5 -6 -6 -6 -6 -7 -7 -6 -7
-9 -8 -8 -8 -8 -8 -7 -7 -7 -7 -7 -7 -7 -7 -7 -7 -8 -8 -8 -7 -7 -7 -7 -7 -7 -7 -7 -7 -8 -7 -7 -7 -6 -6 -6 -5 -5 -6 -6 -7 -7 -7 -7 -7 -7
-8 -8 -8 -8 -8 -8 -8 -7 -7 -6 -7 -7 -8 -8 -8 -7 -8 -8 -8 -8 -7 -7 -7 -8 -8 -7 -8 -8 -7 -7 -7 -7 -6 -6 -6 -6 -5 -7 -7 -7 -7 -7 -7 -7 -7
-8 -8 -8 -8 -8 -7 -7 -8 -7 -6 -7 -7 -7 -8 -8 -8 -8 -8 -8 -8 -8 -7 -7 -7 -8 -7 -8 -8 -8 -8 -8 -7 -7 -6 -6 -6 -6 -7 -7 -7 -7 -7 -7 -7 -7
-8 -8 -7 -7 -7 -7 -7 -7 -7 -7 -7 -7 -7 -8 -8 -8 -8 -8 -8 -9 -9 -9 -8 -8 -7 -8 -7 -7 -8 -8 -8 -8 -8 -7 -7 -7 -7 -8 -8 -8 -8 -8 -7 -7 -7
-7 -7 -7 -7 -7 -7 -7 -7 -7 -7 -7 -7 -7 -8 -8 -8 -8 -8 -8 -8 -8 -9 -9 -9 -8 -8 -8 -9 -8 -8 -8 -9 -8 -7 -8 -7 -8 -8 -8 -8 -8 -8 -8 -7 -7
-8 -7 -7 -7 -7 -7 -7 -7 -7 -7 -7 -7 -7 -8 -8 -9 -8 -9 -9 -9 -9 -9 -9 -9 -9 -9 -9 -9 -9 -8 -8 -9 -9 -9 -8 -7 -7 -9 -9 -8 -8 -8 -9 -9 -8
-7 -7 -7 -7 -7 -7 -7 -7 -7 -7 -7 -7 -7 -7 -8 -8 -8 -8 -9 -10 -10 -10 -11 -10 -10 -10 -9 -9 -10 -10 -9 -10 -10 -9 -9 -8 -8 -8 -9 -9 -9 -9 -9 -9 -9
-7 -7 -7 -7 -7 -7 -7 -7 -7 -7 -8 -8 -8 -8 -8 -8 -8 -8 -9 -9 -10 -10 -10 -10 -10 -11 -10 -10 -9 -10 -10 -10 -9 -10 -9 -9 -9 -9 -9 -9 -9 -9 -8 -9 -9
-7 -7 -7 -7 -7 -7 -7 -7 -8 -8 -8 -8 -8 -9 -9 -9 -9 -9 -9 -10 -10 -10 -11 -11 -10 -11 -11 -10 -10 -9 -9 -10 -10 -10 -9 -9 -9 -9 -9 -9 -9 -9 -9 -9 -9
-7 -7 -7 -7 -7 -7 -7 -7 -8 -8 -8 -8 -8 -8 -8 -8 -9 -9 -9 -9 -9 -9 -11 -11 -11 -11 -11 -11 -10 -10 -10 -10 -10 -10 -10 -10 -9 -10 -10 -10 -10 -10 -10 -9 -9
Height
5896 5896 5896 5896 5896 5896 5896 5896 5897 5897 5898 5899 5900 5901 5902 5902 5902 5902 5902 5904 5904 5904 5904 5904 5904 5904 5904 5904 5903 5904 5905 5904 5904 5904 5903 5901 5900 5899 5898 5897 5896 5895 5893 5891 5890
5894 5894 5894 5895 5895 5895 5895 5895 5896 5896 5897 5898 5899 5900 5901 5902 5902 5902 5903 5903 5904 5905 5905 5905 5905 5904 5904 5903 5904 5905 5905 5905 5904 5902 5902 5900 5898 5898 5898 5897 5896 5895 5892 5890 5889
5892 5893 5893 5893 5894 5894 5894 5894 5894 5896 5897 5898 5899 5900 5901 5902 5903 5902 5902 5904 5904 5905 5906 5906 5906 5906 5906 5904 5904 5905 5904 5902 5902 5902 5902 5901 5899 5898 5898 5897 5896 5894 5892 5889 5888
5891 5891 5892 5893 5893 5893 5893 5893 5894 5895 5896 5897 5898 5899 5901 5902 5904 5902 5902 5904 5905 5906 5907 5907 5907 5907 5907 5905 5904 5905 5904 5903 5902 5902 5903 5900 5900 5900 5898 5897 5895 5894 5892 5890 5889
5890 5890 5891 5892 5892 5892 5892 5893 5893 5894 5895 5896 5897 5899 5901 5902 5903 5903 5903 5905 5906 5907 5908 5908 5908 5907 5906 5905 5905 5907 5905 5904 5904 5903 5903 5902 5901 5900 5900 5898 5896 5894 5893 5891 5889
5889 5890 5890 5891 5891 5892 5892 5893 5894 5894 5895 5896 5897 5899 5901 5903 5903 5903 5904 5905 5906 5908 5908 5908 5908 5907 5906 5906 5906 5906 5907 5906 5906 5905 5904 5903 5902 5901 5900 5899 5897 5895 5894 5893 5891
5888 5889 5890 5890 5891 5891 5892 5893 5893 5894 5895 5896 5898 5899 5901 5903 5903 5904 5905 5905 5906 5908 5908 5908 5907 5908 5907 5906 5906 5907 5907 5906 5905 5904 5904 5901 5901 5899 5899 5899 5898 5897 5895 5894 5893
5888 5889 5889 5890 5891 5891 5892 5893 5894 5894 5895 5896 5898 5899 5901 5903 5904 5904 5904 5905 5906 5907 5908 5907 5907 5907 5907 5907 5906 5906 5907 5906 5904 5903 5903 5902 5900 5899 5899 5899 5899 5898 5896 5894 5893
5887 5888 5889 5890 5890 5891 5892 5893 5894 5895 5896 5897 5898 5899 5901 5902 5903 5904 5904 5905 5905 5906 5907 5907 5906 5906 5906 5906 5906 5905 5906 5905 5905 5904 5903 5903 5901 5898 5899 5898 5898 5898 5896 5894 5893
5886 5886 5887 5888 5889 5890 5891 5893 5894 5895 5896 5897 5898 5900 5900 5901 5902 5903 5902 5903 5904 5905 5906 5906 5905 5905 5905 5905 5905 5905 5905 5905 5905 5905 5903 5902 5902 5899 5898 5899 5898 5898 5896 5894 5892
5884 5885 5886 5887 5888 5889 5891 5892 5894 5894 5894 5895 5897 5898 5898 5898 5899 5901 5901 5901 5901 5902 5903 5904 5904 5904 5903 5903 5904 5904 5903 5905 5904 5903 5904 5902 5900 5900 5899 5899 5898 5897 5896 5894 5892
5881 5883 5883 5884 5885 5887 5888 5889 5890 5892 5892 5893 5893 5895 5895 5895 5896 5897 5899 5899 5899 5899 5900 5901 5901 5901 5901 5901 5902 5902 5902 5902 5903 5902 5903 5902 5900 5899 5899 5898 5897 5896 5895 5895 5893
5878 5879 5880 5881 5882 5884 5885 5886 5886 5887 5889 5890 5890 5892 5892 5892 5892 5893 5895 5896 5896 5896 5896 5898 5897 5898 5898 5899 5900 5900 5901 5900 5900 5900 5901 5900 5900 5899 5898 5898 5897 5895 5895 5896 5894
5874 5875 5877 5878 5881 5880 5881 5883 5883 5884 5885 5886 5886 5886 5886 5886 5887 5889 5889 5891 5891 5890 5892 5893 5893 5895 5896 5896 5897 5897 5897 5896 5897 5898 5899 5899 5900 5900 5898 5898 5898 5896 5895 5894 5893
5870 5871 5872 5874 5875 5876 5878 5878 5878 5879 5881 5880 5880 5880 5881 5884 5884 5883 5884 5884 5884 5885 5889 5888 5888 5891 5893 5892 5894 5897 5892 5895 5896 5896 5897 5897 5898 5899 5900 5899 5899 5897 5895 5894 5893
5865 5867 5868 5869 5870 5872 5872 5872 5874 5876 5875 5875 5875 5876 5878 5879 5879 5878 5879 5879 5880 5882 5884 5884 5885 5887 5889 5887 5891 5891 5892 5892 5894 5895 5896 5895 5897 5899 5899 5899 5898 5897 5895 5893 5893
5859 5861 5863 5864 5866 5866 5867 5868 5871 5870 5872 5873 5872 5873 5874 5874 5875 5875 5875 5876 5877 5878 5879 5879 5882 5884 5885 5885 5887 5889 5890 5891 5893 5894 5895 5893 5895 5896 5897 5897 5897 5897 5896 5895 5893
5855 5857 5859 5860 5862 5862 5864 5865 5865 5866 5868 5869 5869 5870 5870 5871 5871 5872 5872 5874 5874 5874 5875 5876 5878 5880 5882 5883 5885 5886 5888 5889 5890 5891 5890 5890 5893 5894 5894 5895 5896 5897 5896 5896 5895
5853 5854 5856 5858 5859 5860 5861 5860 5859 5862 5864 5865 5867 5867 5867 5868 5869 5870 5870 5871 5872 5872 5873 5874 5874 5876 5877 5879 5882 5884 5885 5885 5885 5885 5886 5887 5888 5891 5892 5893 5893 5895 5896 5895 5895
5849 5851 5853 5855 5856 5857 5858 5856 5855 5857 5860 5861 5863 5864 5864 5866 5868 5869 5869 5868 5869 5870 5871 5872 5872 5874 5875 5876 5878 5880 5881 5881 5880 5880 5881 5882 5883 5884 5888 5890 5891 5892 5893 5893 5894
5846 5848 5850 5851 5853 5854 5854 5853 5853 5855 5857 5858 5859 5860 5862 5863 5865 5866 5867 5867 5866 5868 5869 5870 5870 5873 5871 5873 5873 5875 5876 5876 5876 5876 5875 5877 5879 5880 5883 5885 5886 5887 5889 5891 5892
5843 5845 5847 5848 5850 5849 5849 5849 5850 5850 5852 5853 5855 5856 5856 5858 5859 5860 5862 5862 5863 5863 5864 5865 5865 5867 5868 5868 5867 5868 5868 5870 5869 5872 5871 5871 5875 5875 5877 5879 5880 5882 5883 5887 5888
5840 5842 5843 5844 5845 5845 5845 5846 5846 5846 5847 5848 5849 5850 5851 5851 5852 5853 5854 5854 5855 5855 5855 5856 5856 5859 5863 5864 5863 5863 5863 5863 5864 5865 5866 5867 5872 5870 5871 5873 5875 5876 5878 5881 5883
5838 5838 5839 5840 5841 5842 5842 5843 5843 5843 5842 5843 5844 5844 5845 5845 5845 5845 5847 5846 5847 5848 5848 5846 5845 5848 5853 5857 5856 5855 5857 5857 5858 5858 5861 5862 5866 5865 5867 5869 5871 5872 5873 5875 5877
5834 5835 5835 5836 5837 5837 5838 5839 5838 5837 5837 5837 5837 5836 5836 5835 5835 5835 5836 5837 5836 5837 5836 5836 5836 5836 5839 5844 5845 5848 5850 5850 5850 5852 5853 5858 5858 5861 5864 5864 5866 5867 5868 5870 5871
5830 5831 5831 5832 5832 5832 5832 5833 5832 5830 5829 5828 5828 5827 5826 5825 5824 5823 5822 5823 5825 5824 5824 5823 5822 5823 5827 5830 5833 5835 5839 5840 5842 5844 5845 5848 5850 5854 5857 5859 5860 5861 5863 5865 5866
5826 5826 5826 5827 5827 5826 5826 5825 5824 5823 5821 5820 5818 5816 5814 5812 5812 5810 5809 5809 5810 5812 5812 5810 5809 5810 5811 5817 5817 5820 5825 5829 5833 5834 5836 5837 5844 5843 5846 5848 5851 5853 5855 5857 5859
Wind_Speed
12 12 12 12 10 10 10 10 10 11 9 7 6 5 4 2 1 2 4 3 4 4 4 6 6 6 4 5 6 2 2 5 9 10 7 7 6 6 4 5 6 7 4 3 4
15 14 13 11 10 10 10 9 8 9 8 7 6 6 5 4 3 5 5 3 3 3 5 6 5 7 9 8 5 2 1 6 8 10 9 9 9 7 8 8 5 5 6 4 3
15 14 12 11 9 8 8 7 7 7 7 7 6 6 5 4 4 4 5 0 2 6 6 6 7 7 8 8 5 3 5 2 7 7 6 6 8 9 8 9 9 8 8 6 2
13 12 11 9 8 8 6 5 5 5 6 7 7 6 5 5 4 3 2 3 4 6 6 6 6 7 8 10 10 2 6 3 2 5 4 2 4 9 11 11 10 9 7 4 2
11 10 10 8 7 6 5 4 5 6 7 7 7 6 5 5 5 3 2 4 5 6 7 6 6 6 6 9 8 0 6 3 2 5 3 2 2 5 7 9 8 9 7 3 2
10 9 9 9 8 8 5 4 5 6 7 7 6 6 8 7 6 5 3 3 4 4 5 5 6 6 7 7 6 3 3 2 3 5 3 5 4 4 4 7 10 8 9 5 3
9 9 8 8 8 8 8 7 6 7 7 7 8 8 7 8 7 6 3 2 1 3 4 6 7 7 6 5 5 4 4 4 4 1 1 7 7 7 5 7 9 9 7 6 5
7 8 8 7 7 7 7 7 8 9 9 8 8 8 8 6 6 5 5 5 4 5 5 6 8 7 6 4 4 5 3 5 4 2 3 5 6 7 6 8 10 10 5 6 6
8 9 9 9 8 8 8 8 9 10 10 9 9 8 8 7 7 7 8 10 9 9 8 8 10 8 9 7 6 6 6 9 4 4 5 3 4 5 1 4 7 6 5 4 8
10 10 10 10 10 10 10 10 10 10 10 10 10 10 10 11 11 10 12 13 13 12 11 12 12 10 12 11 10 8 7 7 6 6 5 2 3 1 1 2 4 6 3 4 7
13 13 12 12 11 11 10 10 11 13 13 14 13 12 13 15 14 13 14 15 16 16 15 14 12 13 15 15 12 9 10 9 7 6 4 4 1 4 3 1 1 3 7 6 7
16 15 15 15 15 14 13 14 14 14 15 15 16 15 15 17 17 16 15 16 18 19 19 18 17 18 17 16 13 11 10 12 8 7 4 7 3 1 1 1 3 2 6 7 7
16 17 17 17 17 16 16 16 17 18 19 19 21 20 21 23 23 22 21 20 21 21 21 19 22 19 18 17 14 13 10 15 11 7 4 4 2 2 1 3 3 3 4 5 6
17 17 16 17 17 18 17 18 20 20 21 22 23 23 25 27 27 25 27 25 25 24 22 18 20 18 17 17 16 13 16 17 12 7 7 5 1 3 7 11 2 5 4 6 6
21 19 18 18 18 19 20 20 21 22 22 24 26 28 28 27 28 27 26 23 24 22 18 19 20 18 14 16 13 10 19 13 11 8 10 8 4 3 2 9 4 4 5 4 4
25 22 21 20 21 19 18 18 17 18 21 22 22 22 22 22 19 20 18 19 18 16 13 16 17 14 12 17 9 16 15 14 10 13 11 12 6 3 3 6 6 5 6 7 3
21 24 21 19 16 15 15 17 18 20 19 20 21 20 19 19 18 17 17 16 16 14 13 16 12 13 16 17 14 15 19 18 13 14 13 13 8 9 6 5 8 5 2 3 6
13 15 15 14 12 12 11 15 19 21 20 20 19 19 19 17 18 18 18 15 14 12 12 12 13 11 13 12 10 15 18 17 18 17 16 16 9 10 8 6 4 7 7 1 4
12 13 13 12 11 11 11 14 20 20 20 20 19 21 21 19 16 18 19 17 16 15 14 12 15 14 16 16 16 15 16 19 19 17 16 19 16 12 14 12 11 11 9 4 4
12 12 12 13 13 13 13 17 20 18 17 18 18 20 21 17 13 13 17 18 19 20 19 19 20 19 19 20 20 19 19 21 21 18 18 17 17 19 14 14 17 16 14 9 3
12 12 12 13 13 15 17 20 21 18 16 16 17 18 19 19 17 15 16 21 22 20 21 23 25 21 25 24 23 22 20 21 23 23 21 17 15 17 17 16 19 20 15 8 4
12 12 12 13 15 16 15 17 19 19 17 18 16 17 20 21 22 22 23 23 22 24 22 26 27 23 24 27 29 29 26 26 29 24 21 19 17 19 20 23 22 18 17 10 6
11 12 13 15 14 15 15 14 16 19 18 19 19 19 21 24 26 26 27 29 29 30 31 30 32 29 24 28 31 34 34 30 29 28 24 23 20 24 25 24 23 21 14 16 15
13 15 16 15 14 15 15 15 18 19 22 23 23 23 24 26 27 29 31 37 38 37 37 41 41 38 33 28 33 35 35 34 30 30 25 23 18 28 28 27 26 23 19 19 21
15 15 16 14 15 17 19 20 20 23 24 27 29 30 31 33 33 34 34 34 37 38 42 45 50 49 43 37 34 34 37 37 38 34 33 25 27 25 27 29 28 29 28 25 25
14 14 15 16 18 20 22 22 25 28 31 33 34 35 38 40 41 42 43 41 39 41 41 42 45 50 52 45 43 40 36 38 40 40 37 32 30 28 27 26 31 29 30 31 31
14 15 16 17 19 22 24 26 28 30 35 35 38 40 43 46 46 48 49 49 47 44 44 46 46 47 53 54 53 50 45 43 41 40 42 40 32 33 34 36 33 32 33 34 35
Wind_Direction
247 258 272 271 265 271 273 267 262 251 251 259 238 231 244 232 231 310 314 347 27 43 17 27 30 31 31 57 67 79 175 113 106 93 75 52 71 117 59 40 37 47 41 317 299
249 257 260 257 264 275 271 261 253 242 244 248 229 224 230 210 251 277 276 297 348 42 44 36 38 33 21 31 48 258 160 121 102 81 62 40 16 19 14 24 38 36 42 21 317
246 245 243 246 259 270 268 250 242 233 236 234 220 224 216 236 266 268 259 334 77 74 66 48 42 42 42 39 29 269 295 180 102 74 63 45 2 17 11 22 33 20 6 23 342
233 232 231 241 255 266 271 241 224 229 224 211 215 217 226 245 193 181 175 97 78 76 70 60 48 47 55 48 33 260 249 249 130 90 40 45 25 11 12 21 24 19 5 16 311
222 222 229 237 243 255 255 234 205 192 198 213 215 221 209 173 160 167 143 106 89 74 64 53 44 38 31 52 50 213 261 264 50 72 75 47 118 33 8 4 21 36 28 13 37
218 221 223 231 239 234 230 213 196 198 208 216 209 181 166 164 157 159 152 122 89 61 47 24 22 21 20 35 39 15 276 309 3 43 67 120 139 338 360 353 12 29 38 36 28
206 213 219 221 220 216 218 216 209 205 199 187 178 178 180 175 172 178 199 234 302 39 14 1 350 356 13 1 19 354 328 342 2 273 51 74 61 30 15 351 353 5 42 42 38
197 204 208 206 195 191 192 184 179 180 184 183 182 191 195 195 201 216 234 263 290 314 332 336 327 336 344 338 357 314 343 346 331 341 53 75 66 59 8 346 340 344 6 45 41
217 218 217 216 210 201 200 196 190 192 202 207 209 218 214 212 224 236 256 270 284 296 301 306 312 317 315 310 309 305 308 332 295 318 351 16 69 112 148 319 337 350 351 52 53
231 228 226 223 220 218 217 213 210 213 217 224 226 227 239 239 237 244 261 274 282 286 289 292 297 295 298 302 301 306 304 318 333 288 293 314 70 58 219 323 350 17 69 93 68
240 240 237 232 230 229 226 225 225 230 230 236 240 243 244 253 257 258 265 273 278 279 280 281 282 279 289 296 301 302 307 295 322 336 276 250 120 105 121 37 128 108 75 80 78
247 244 244 242 239 239 241 243 240 241 241 243 246 243 247 250 256 257 259 267 272 274 275 274 272 275 281 285 286 293 296 291 294 300 302 250 208 199 175 80 180 131 78 60 73
250 247 246 245 246 247 246 247 247 247 250 245 251 250 248 253 255 258 262 266 273 274 271 268 263 267 269 277 283 286 287 278 277 285 316 225 202 193 295 130 102 62 44 32 65
254 254 252 251 252 252 253 251 253 253 253 254 254 253 252 253 260 261 263 267 270 269 270 271 265 261 262 268 274 277 266 260 272 273 253 246 298 104 154 161 105 109 70 18 19
256 255 256 257 259 260 259 257 256 257 254 254 252 256 258 258 261 265 268 264 260 264 270 261 266 261 261 261 271 254 263 267 265 248 246 269 304 3 100 160 169 122 104 52 28
253 255 261 264 265 262 256 249 244 251 248 250 259 262 268 270 265 259 253 247 246 250 255 261 259 262 245 252 241 253 264 271 257 235 231 251 261 267 233 190 164 132 114 92 69
246 253 258 258 260 258 253 245 242 245 252 256 262 268 276 278 268 254 252 249 243 241 239 250 260 239 240 244 239 240 252 256 250 236 228 251 258 267 264 281 236 145 158 56 348
248 245 242 246 249 255 257 252 248 250 253 257 259 261 270 279 281 247 247 246 239 237 233 234 233 227 234 234 220 227 240 249 251 240 238 259 261 257 265 276 280 217 210 216 0
260 241 238 237 242 249 258 260 259 256 251 252 251 254 266 280 280 247 248 255 247 238 229 220 225 224 211 221 228 241 256 261 270 271 262 262 267 232 247 248 237 219 224 277 354
257 239 231 236 244 252 260 261 263 267 261 258 251 247 257 268 274 250 246 250 253 251 250 240 231 233 230 231 245 253 251 262 275 282 277 261 254 251 243 248 256 251 237 257 287
246 237 238 243 252 260 265 265 269 277 274 270 270 265 259 259 260 262 252 250 254 260 264 261 256 245 242 250 242 248 257 267 268 277 273 255 235 230 244 237 248 259 260 268 236
250 250 247 255 264 261 256 257 263 269 272 272 268 268 270 269 265 265 263 260 257 256 261 259 258 259 255 240 244 247 246 250 261 266 262 246 225 218 225 221 234 251 269 272 259
251 256 258 266 262 253 247 250 254 265 271 271 273 268 269 272 275 275 277 281 284 285 283 275 267 257 241 246 255 256 250 243 251 255 261 253 215 215 221 230 243 246 252 279 273
262 267 269 262 252 250 255 260 264 267 272 278 277 275 271 267 265 265 265 267 268 264 263 270 273 272 261 243 241 247 251 251 247 250 257 259 253 227 229 234 246 249 256 258 264
262 262 265 262 260 257 259 263 265 270 270 273 273 272 272 272 270 268 264 260 260 259 260 258 258 263 265 260 250 243 244 254 257 255 260 261 263 264 249 251 252 256 255 253 262
261 258 257 260 263 265 265 265 267 269 270 270 268 268 268 267 267 267 266 263 257 258 258 258 253 252 253 250 253 255 246 247 250 259 265 271 275 277 267 258 255 257 264 267 264
270 272 274 273 273 273 274 274 272 271 274 274 274 273 273 272 271 269 268 266 264 257 251 252 254 251 248 248 246 246 247 250 250 253 258 260 266 269 271 272 268 264 268 270 273